Mount Shasta, CA

6:25 PM PDT on March 26, 2017 (GMT -0700)
Mount Shasta

Weather History for KMHS - March, 2013

Change the Weather History Date:

Monday, March 25, 2013

  Actual Average Record
Temperature  
Mean Temperature 47 °F 44 °F  
Max Temperature 63 °F 56 °F 74 °F (1997)
Min Temperature 30 °F 31 °F 15 °F (1929)
Degree Days  
Heating Degree Days 18 21  
Month to date heating degree days 522 579  
Since 1 July heating degree days 4240 4554  
Cooling Degree Days 0 0  
Month to date cooling degree days 0 0  
Year to date cooling degree days 0 0  
Moisture  
Dew Point 33 °F    
Average Humidity 64    
Maximum Humidity 85    
Minimum Humidity 33    
Precipitation  
Precipitation T in 0.15 in 1.79 in (1971)
Month to date precipitation 2.05 5.15  
Year to date precipitation 3.90 19.44  
Sea Level Pressure  
Sea Level Pressure 29.99 in    
Wind  
Wind Speed 2 mph (SE)    
Max Wind Speed 9 mph    
Max Gust Speed 16 mph    
Visibility 10 miles    
Events Rain    
T = Trace of Precipitation, MM = Missing Value Source: NWS Daily Summary

Daily Weather History Graph

Daily Weather History Graph

Search for Another Location

Airport or City:

Trip Planner

Search our weather history database for the weather conditions in past years. The results will help you decide how hot, cold, wet, or windy it might be!

Date:

Astronomy

Mar. 25, 2013 Rise Set
Actual Time 7:03 AM PDT 7:27 PM PDT
Civil Twilight 6:35 AM PDT 7:54 PM PDT
Nautical Twilight 6:03 AM PDT 8:27 PM PDT
Astronomical Twilight 5:30 AM PDT 9:01 PM PDT
Moon 6:04 PM PDT (3/25) 5:50 AM PDT (3/25)
Length of Visible Light 13h 19m
Length of Day
12h 23m
Waxing Gibbous, 97% of the Moon is Illuminated
Mar 25
Waxing Gibbous
Mar 27
Full
Apr 2
Last Quarter
Apr 10
New
Apr 18
First Quarter

Hourly Weather History & Observations

Time (PDT) Temp. Windchill Dew Point Humidity Pressure Visibility Wind Dir Wind Speed Gust Speed Precip Events Conditions
12:56 AM 35.1 °F - 28.9 °F 78% 30.06 in 5.0 mi Calm Calm - N/A   Haze
1:56 AM 35.1 °F - 28.0 °F 76% 30.04 in 10.0 mi Calm Calm - N/A   Clear
2:56 AM 33.1 °F - 27.0 °F 78% 30.04 in 10.0 mi Calm Calm - N/A   Clear
3:56 AM 33.1 °F - 27.0 °F 78% 30.02 in 10.0 mi Calm Calm - N/A   Clear
4:56 AM 32.0 °F - 27.0 °F 82% 30.03 in 10.0 mi Calm Calm - N/A   Clear
5:56 AM 30.9 °F - 27.0 °F 85% 30.04 in 10.0 mi Calm Calm - N/A   Clear
6:56 AM 30.9 °F - 27.0 °F 85% 30.04 in 10.0 mi Calm Calm - N/A   Clear
7:56 AM 33.1 °F - 28.9 °F 85% 30.05 in 3.0 mi Calm Calm - N/A   Clear
8:56 AM 42.1 °F - 34.0 °F 73% 30.04 in 10.0 mi Calm Calm - N/A   Clear
9:56 AM 54.0 °F - 33.1 °F 45% 30.01 in 10.0 mi SE 3.5 mph - N/A   Clear
10:56 AM 59.0 °F - 33.1 °F 38% 30.01 in 10.0 mi SSE 5.8 mph - N/A   Clear
11:56 AM 57.9 °F - 34.0 °F 41% 30.01 in 10.0 mi Variable 5.8 mph - N/A   Clear
12:56 PM 57.0 °F - 33.1 °F 40% 30.01 in 10.0 mi ESE 4.6 mph - N/A   Clear
1:56 PM 57.9 °F - 34.0 °F 41% 29.99 in 10.0 mi Calm Calm - N/A   Partly Cloudy
2:56 PM 57.9 °F - 32.0 °F 37% 29.97 in 10.0 mi Variable 4.6 mph - N/A   Partly Cloudy
3:56 PM 62.1 °F - 33.1 °F 34% 29.94 in 10.0 mi Calm Calm - N/A   Partly Cloudy
4:56 PM 57.9 °F - 28.0 °F 32% 29.93 in 10.0 mi Variable 3.5 mph - N/A   Mostly Cloudy
5:56 PM 55.9 °F - 28.0 °F 34% 29.94 in 10.0 mi Calm Calm - N/A   Overcast
6:56 PM 53.1 °F - 33.1 °F 47% 29.96 in 10.0 mi SE 4.6 mph - N/A   Overcast
7:56 PM 48.9 °F - 34.0 °F 56% 29.97 in 10.0 mi Calm Calm - 0.00 in   Overcast
8:56 PM 46.9 °F - 37.9 °F 71% 29.96 in 10.0 mi Calm Calm - 0.00 in   Overcast
9:56 PM 46.0 °F - 39.9 °F 79% 29.95 in 10.0 mi Calm Calm - 0.00 in Rain Light Rain
10:31 PM 44.6 °F - 42.8 °F 93% 29.92 in 10.0 mi Calm Calm - 0.00 in   Overcast
10:48 PM 44.6 °F - 41.0 °F 87% 29.92 in 10.0 mi Calm Calm - 0.00 in   Overcast
10:56 PM 46.0 °F 43.9 °F 39.9 °F 79% 29.94 in 10.0 mi Variable 4.6 mph - 0.00 in   Overcast
11:10 PM 46.4 °F 45.2 °F 39.2 °F 76% 29.92 in 10.0 mi Variable 3.5 mph - N/A   Overcast
11:56 PM 45.0 °F - 39.0 °F 80% 29.94 in 10.0 mi Calm Calm - N/A   Overcast